[[{"header":{"parameterUnit":"m.s-1","parameterCategory":1,"la1":30.2991,"la2":30.254,"lo1":-89.0895,"lo2":-89.0444,"dy":0.0017,"dx":0.0017,"nx":28,"ny":28,"refTime":"2023-08-01T03:00:00:Z","depth":0,"parameterNumber":2,"parameterNumberName":"U-component_of_WINDS"},"data":[0,0,0,0,0,0,0,0,0,0,0,0,0,0,0,0,0,0,0,0,0,0,0,0,0,0,0,0,0,0,0,0,0,0,0,0,0,0,0,0,0,0,0,0,0,0,0,0,0,0,0,0,0,0,0,0,0,0,1.396,1.3961,0,1.402,1.402,1.4021,1.4008,1.4007,1.4006,1.4005,1.4064,1.4067,1.4069,0,0,0,0,0,0,0,0,0,0,0,0,0,1.3833,1.3836,1.396,1.3961,1.3962,1.4019,1.402,1.4021,1.4008,1.4007,1.4005,1.4004,1.4063,1.4066,1.4069,0,0,0,0,0,0,0,0,0,0,0,0,0,1.389,1.3836,1.396,1.3962,1.3963,1.4019,1.402,1.4021,1.4008,1.4007,1.4005,1.4003,1.4062,1.4066,1.407,1.4127,0,0,1.4082,1.4084,0,0,0,0,0,0,0,0,1.3887,1.3895,1.3961,1.3962,1.3963,1.4005,1.3997,1.4057,1.4009,1.3991,1.4005,1.4003,1.4046,1.4051,1.4065,1.413,1.4133,1.4082,1.4085,1.4086,1.4087,0,0,0,0,0,0,0,1.3883,1.3892,1.3984,1.3962,1.3963,1.3959,1.3966,1.4008,1.4027,1.3992,1.3992,1.3999,1.4046,1.4062,1.4067,1.4134,1.4082,1.4086,1.4088,1.409,1.4246,1.4248,0,0,0,0,0,0,1.3878,1.3889,1.3982,1.3985,1.392,1.3963,1.397,1.3993,1.4026,1.403,1.4,1.3998,1.4056,1.4062,1.4069,1.4137,1.4086,1.409,1.4092,1.4244,1.4247,1.4249,0,0,0,0,0,0,1.3876,1.3887,1.3979,1.3937,1.3948,1.3967,1.3993,1.3995,1.4011,1.4032,1.4035,1.4013,1.4055,1.4063,1.4112,1.4139,1.4092,1.4095,1.4242,1.4245,1.4248,1.4274,0,0,0,0,0,0,1.3872,1.3886,1.3909,1.3938,1.3951,1.4023,1.3995,1.3997,1.4018,1.4016,1.4045,1.4049,1.4054,1.4107,1.4116,1.4143,1.4098,1.424,1.4243,1.4247,1.4271,1.4278,1.4283,0,0,0,0,0,1.3868,1.3914,1.391,1.3921,1.398,1.4024,1.4032,1.4038,1.402,1.4042,1.4056,1.4048,1.4134,1.4112,1.4123,1.4151,1.4238,1.4242,1.4246,1.4268,1.4276,1.4283,0,0,0,0,0,0,1.3887,1.3918,1.3914,1.3971,1.3995,1.4022,1.4051,1.4046,1.4076,1.4072,1.4077,1.4084,1.4134,1.4148,1.4122,1.4208,1.4184,1.419,1.4197,1.4205,1.421,1.4206,1.4102,0,0,0,0,0,1.3899,1.3933,1.3958,1.4006,1.4018,1.4032,1.4052,1.4054,1.4079,1.409,1.4107,1.4131,1.4163,1.4185,1.4216,1.4273,1.4279,1.4298,1.4304,1.4309,1.4314,1.4343,1.4352,1.4262,1.4262,1.4262,0,0,1.3922,1.3943,1.3964,1.401,1.4029,1.4064,1.4041,1.4079,1.4104,1.4095,1.4142,1.4156,1.4183,1.4236,1.426,1.4249,1.434,1.4314,1.4318,1.432,1.4349,1.4357,1.4365,1.4265,1.4264,1.4264,0,0,1.3981,1.4001,1.4043,1.4062,1.4091,1.41,1.411,1.4138,1.4146,1.4194,1.4187,1.4217,1.4273,1.4293,1.431,1.4375,1.4368,1.4385,1.4416,1.4445,1.4452,1.4458,1.448,1.4488,1.4391,1.4391,1.4391,0,1.4006,1.4059,1.4065,1.4103,1.4123,1.4116,1.4157,1.4175,1.4213,1.4226,1.4213,1.4283,1.4301,1.4358,1.4373,1.4388,1.4398,1.4382,1.4451,1.4457,1.4463,1.4484,1.4492,1.4393,1.4392,1.4392,1.4392,0,1.4087,1.4124,1.4154,1.419,1.4213,1.4253,1.4263,1.4286,1.4286,1.4296,1.4343,1.4365,1.4399,1.4413,1.4414,1.4469,1.4461,1.445,1.4426,1.4473,1.4493,1.4501,1.4395,1.4394,1.4394,1.4393,0,0,1.4162,1.42,1.4211,1.4226,1.4258,1.4285,1.4324,1.4358,1.4377,1.4403,1.4434,1.4481,1.447,1.449,1.4492,1.4517,1.4566,1.4502,1.4503,1.4512,1.4627,1.4635,1.4644,1.4562,1.4563,1.4565,1.4624,0,1.4223,1.4292,1.4297,1.4359,1.4391,1.4385,1.4418,1.444,1.445,1.4479,1.449,1.4523,1.4506,1.4518,1.4542,1.4555,1.4589,1.4551,1.459,1.4591,1.4583,1.4655,1.4664,1.4719,1.4632,1.4633,1.4634,0,1.4305,1.4333,1.4397,1.4422,1.4436,1.4466,1.4497,1.4525,1.4549,1.4554,1.4575,1.4574,1.4612,1.4587,1.4639,1.4613,1.463,1.4638,1.464,1.4644,1.4615,1.4659,1.4737,1.4745,1.4647,1.4646,1.4645,0,1.4351,1.4405,1.445,1.4464,1.4494,1.4515,1.4529,1.4552,1.4571,1.4598,1.461,1.4641,1.4658,1.4681,1.4687,1.4669,1.4739,1.4715,1.4744,1.4743,1.4758,1.4757,1.4839,1.477,1.477,1.477,1.477,0,1.4418,1.4458,1.4471,1.4498,1.4542,1.4547,1.459,1.4602,1.4622,1.4651,1.4647,1.4675,1.4682,1.471,1.4715,1.4757,1.4765,1.4769,1.477,1.4769,1.4768,1.4779,1.4775,1.4772,1.4772,1.4771,1.4771,0,1.4477,1.4488,1.4536,1.4561,1.4568,1.4599,1.4619,1.4645,1.4654,1.4691,1.47,1.4714,1.4747,1.4756,1.4796,1.4799,1.4848,1.4845,1.4839,1.4839,1.4867,1.4864,1.4958,1.497,1.4894,1.4895,1.4896,0,1.4519,1.4549,1.4577,1.4596,1.4611,1.4642,1.4662,1.4668,1.4688,1.4717,1.474,1.4772,1.4798,1.4851,1.4864,1.4894,1.4892,1.4923,1.4896,1.4894,1.4891,1.4889,1.4891,1.4928,1.4929,1.4929,1.493,0,1.4593,1.4596,1.4625,1.4655,1.4679,1.4703,1.4726,1.4742,1.4751,1.4774,1.4808,1.4828,1.4868,1.49,1.4929,1.4942,1.4937,1.4938,1.4946,1.4945,1.494,1.4942,1.4852,1.4936,1.4935,1.4935,1.4934,1.4934,1.4644,1.467,1.4693,1.4725,1.4742,1.4764,1.4789,1.4801,1.4829,1.4862,1.4864,1.49,1.4922,1.4961,1.4976,1.5004,1.4994,1.5006,1.5009,1.5012,1.5013,1.4936,1.5009,1.5009,1.5009,1.5009,1.5009,0,1.4716,1.473,1.4759,1.4792,1.4816,1.4809,1.4834,1.4855,1.4887,1.4908,1.4934,1.4971,1.5002,1.5017,1.5047,1.5066,1.5064,1.5074,1.5072,1.5075,1.5021,1.501,1.5075,1.5075,1.5075,1.5075,1.5075,1.5074,1.4756,1.4799,1.4805,1.4856,1.487,1.4905,1.492,1.4939,1.4955,1.4998,1.5023,1.5033,1.5051,1.5082,1.511,1.5113,1.5124,1.5134,1.5137,1.5086,1.5079,1.5072,1.5063,1.5137,1.5137,1.5188,1.5189,1.5189]},{"header":{"parameterUnit":"m.s-1","parameterCategory":1,"la1":30.2991,"la2":30.254,"lo1":-89.0895,"lo2":-89.0444,"dy":0.0017,"dx":0.0017,"nx":28,"ny":28,"refTime":"2023-08-01T03:00:00:Z","depth":0,"parameterNumber":3,"parameterNumberName":"V-component_of_WINDS"},"data":[0,0,0,0,0,0,0,0,0,0,0,0,0,0,0,0,0,0,0,0,0,0,0,0,0,0,0,0,0,0,0,0,0,0,0,0,0,0,0,0,0,0,0,0,0,0,0,0,0,0,0,0,0,0,0,0,0,0,2.8447,2.8447,0,2.8356,2.8355,2.8354,2.8261,2.826,2.8259,2.8258,2.8161,2.8159,2.8158,0,0,0,0,0,0,0,0,0,0,0,0,0,2.8539,2.8537,2.8448,2.8446,2.8445,2.8356,2.8355,2.8354,2.8262,2.826,2.8259,2.8257,2.8161,2.816,2.8158,0,0,0,0,0,0,0,0,0,0,0,0,0,2.8478,2.8537,2.8448,2.8389,2.8382,2.8356,2.8355,2.8353,2.8262,2.826,2.8258,2.8256,2.8162,2.816,2.8158,2.8182,0,0,2.8151,2.815,0,0,0,0,0,0,0,0,2.8482,2.8475,2.8398,2.8393,2.8386,2.8318,2.8351,2.8296,2.8262,2.8308,2.8258,2.8255,2.8214,2.8208,2.8195,2.8177,2.8173,2.8151,2.815,2.8149,2.8148,0,0,0,0,0,0,0,2.8486,2.8478,2.8411,2.8397,2.839,2.8365,2.8355,2.834,2.8272,2.8303,2.8297,2.8287,2.8211,2.8197,2.8192,2.8171,2.8151,2.8149,2.8148,2.8147,2.8166,2.8168,0,0,0,0,0,0,2.85,2.8483,2.8414,2.8408,2.843,2.8365,2.8353,2.8342,2.8272,2.826,2.8289,2.8283,2.8202,2.8194,2.8188,2.8209,2.8149,2.8147,2.8145,2.8164,2.8167,2.8168,0,0,0,0,0,0,2.8502,2.8495,2.8418,2.8444,2.8432,2.8366,2.8353,2.8341,2.8327,2.8261,2.8248,2.8288,2.82,2.8191,2.8183,2.8205,2.8146,2.8144,2.8162,2.8165,2.8167,2.8254,0,0,0,0,0,0,2.8505,2.8496,2.8505,2.8445,2.8431,2.8416,2.8355,2.834,2.8324,2.8316,2.8257,2.8245,2.8198,2.8187,2.8181,2.8201,2.8142,2.816,2.8163,2.8167,2.8249,2.826,2.8269,0,0,0,0,0,2.8509,2.8533,2.8506,2.8499,2.8442,2.8418,2.841,2.8356,2.8326,2.8334,2.8292,2.8247,2.8204,2.8187,2.818,2.8199,2.8158,2.8162,2.8166,2.8245,2.8258,2.8268,0,0,0,0,0,0,2.8598,2.8524,2.8494,2.85,2.8466,2.8402,2.8411,2.8371,2.8344,2.8338,2.827,2.8258,2.8258,2.8228,2.821,2.8217,2.8175,2.8177,2.8237,2.8248,2.8258,2.8264,2.814,0,0,0,0,0,2.8618,2.8606,2.8542,2.8554,2.8538,2.8478,2.8466,2.8427,2.8388,2.8373,2.833,2.8294,2.8272,2.8259,2.8235,2.8245,2.8229,2.8254,2.8264,2.8272,2.8275,2.8275,2.8285,2.8182,2.8182,2.8182,0,0,2.866,2.8618,2.8615,2.857,2.854,2.8527,2.8466,2.8456,2.8446,2.8371,2.8361,2.8329,2.8283,2.8285,2.8283,2.8259,2.83,2.8277,2.8285,2.8282,2.8281,2.8291,2.8299,2.8184,2.8184,2.8184,0,0,2.8729,2.8698,2.8703,2.8673,2.8628,2.8587,2.8589,2.8531,2.8506,2.8496,2.8439,2.8425,2.8389,2.8359,2.8338,2.8396,2.8352,2.839,2.844,2.8441,2.8449,2.8456,2.8474,2.8482,2.8393,2.8393,2.8393,0,2.8786,2.8767,2.871,2.8703,2.8684,2.8617,2.8621,2.8594,2.8543,2.8531,2.8506,2.8459,2.8424,2.8415,2.8429,2.8416,2.8414,2.8395,2.8453,2.8459,2.8465,2.8481,2.8489,2.8398,2.8397,2.8397,2.8396,0,2.8838,2.8826,2.8835,2.8788,2.877,2.8768,2.871,2.8699,2.8661,2.8623,2.8612,2.8568,2.8533,2.8528,2.8492,2.8514,2.8501,2.8466,2.8421,2.848,2.8494,2.8501,2.8405,2.8403,2.8401,2.84,0,0,2.896,2.8882,2.8886,2.8863,2.8808,2.8796,2.879,2.8757,2.8748,2.8715,2.8707,2.8678,2.8644,2.8622,2.8581,2.8582,2.8628,2.8546,2.8544,2.8561,2.8647,2.8673,2.8681,2.86,2.8601,2.8601,2.865,0,2.9019,2.9006,2.8954,2.8956,2.8943,2.8879,2.8873,2.8838,2.8802,2.8784,2.8743,2.8723,2.8682,2.8667,2.8666,2.8623,2.8644,2.8619,2.8589,2.8589,2.8601,2.8689,2.8717,2.8765,2.8656,2.8657,2.8657,0,2.9085,2.9056,2.9058,2.9001,2.8993,2.899,2.8954,2.8939,2.8896,2.887,2.8845,2.8799,2.8787,2.8747,2.873,2.8714,2.8699,2.8675,2.8676,2.867,2.8626,2.8683,2.8779,2.8786,2.8666,2.8665,2.8665,0,2.9171,2.9133,2.9128,2.9111,2.9046,2.9045,2.9017,2.8973,2.8956,2.8925,2.8912,2.888,2.8862,2.8837,2.8783,2.876,2.8771,2.8727,2.8747,2.8748,2.8751,2.8751,2.8844,2.8745,2.8744,2.8744,2.8744,0,2.9241,2.9243,2.9166,2.9163,2.9163,2.9104,2.9105,2.9071,2.9033,2.902,2.8963,2.8953,2.8883,2.8864,2.8822,2.8812,2.8805,2.8782,2.877,2.8786,2.8788,2.8774,2.8768,2.8746,2.8746,2.8745,2.8745,0,2.9337,2.9286,2.9276,2.9215,2.92,2.9202,2.9149,2.9143,2.9104,2.9089,2.9082,2.9019,2.8994,2.8938,2.8897,2.8869,2.8869,2.8849,2.8883,2.8876,2.8898,2.8896,2.8983,2.899,2.8889,2.889,2.8891,0,2.9384,2.9384,2.9323,2.9312,2.9287,2.9269,2.9251,2.9192,2.9175,2.9127,2.9126,2.9096,2.9069,2.9031,2.898,2.8948,2.8926,2.8959,2.8921,2.8936,2.8924,2.8924,2.8923,2.8967,2.8968,2.897,2.8971,0,2.9471,2.9446,2.9423,2.9392,2.9372,2.9344,2.9313,2.9306,2.9239,2.9223,2.9197,2.9176,2.9134,2.9104,2.9065,2.9034,2.8991,2.8983,2.8986,2.9001,2.902,2.9008,2.8904,2.8981,2.898,2.8979,2.8979,2.8978,2.9543,2.9539,2.9496,2.9472,2.9443,2.9414,2.9405,2.9365,2.9342,2.9304,2.927,2.9247,2.9203,2.9145,2.9117,2.9097,2.9075,2.9079,2.908,2.9081,2.9087,2.9025,2.9089,2.9089,2.9089,2.9088,2.9088,0,2.9626,2.9595,2.9574,2.9532,2.9513,2.9475,2.9438,2.9424,2.9404,2.9367,2.9342,2.9311,2.9281,2.9229,2.9195,2.9188,2.9167,2.9181,2.918,2.9173,2.911,2.911,2.9198,2.9198,2.9198,2.9198,2.9198,2.9198,2.9666,2.9658,2.9628,2.9604,2.9572,2.955,2.9531,2.9504,2.9475,2.9443,2.9419,2.9385,2.9341,2.9303,2.9274,2.9259,2.9248,2.9268,2.9247,2.9188,2.9178,2.9168,2.9168,2.9267,2.9267,2.9311,2.9312,2.9312]}]]